Location: Hamburg
(53.5554°N, 9.9941°E)
Time: 04:28:07
(UTC+02:00)

ISS - Pass Details

Date: 09 May 2021
Orbit: 417 x 422 km, 51.6° (Epoch: 15 June)

Event Time Altitude Azimuth Distance (km) Brightness Sun altitude
Exits shadow 03:34:58 18° 254° (WSW) 1,131 -2.0 -13.1°
Maximum altitude 03:37:22 63° 176° (S) 478 -3.7 -12.9°
Drops below altitude 10° 03:40:44 10° 95° (E) 1,511 -0.5 -12.6°
Sets 03:42:51 0° 92° (E) 2,377 0.6 -12.4°
